[[{"header":{"parameterUnit":"m.s-1","parameterCategory":1,"la1":30.2991,"la2":30.254,"lo1":-89.0895,"lo2":-89.0444,"dy":0.0017,"dx":0.0017,"nx":28,"ny":28,"refTime":"2025-05-20T21:00:00:Z","depth":0,"parameterNumber":2,"parameterNumberName":"U-component_of_WINDS"},"data":[0,0,0,0,0,0,0,0,0,0,0,0,0,0,0,0,0,0,0,0,0,0,0,0,0,0,0,0,0,0,0,0,0,0,0,0,0,0,0,0,0,0,0,0,0,0,0,0,0,0,0,0,0,0,0,0,0,0,1.322,1.3221,0,1.3321,1.3323,1.3324,1.3364,1.3364,1.3363,1.3363,1.3469,1.3472,1.3475,0,0,0,0,0,0,0,0,0,0,0,0,0,1.3063,1.3066,1.3219,1.3221,1.3222,1.3321,1.3323,1.3324,1.3364,1.3364,1.3363,1.3363,1.3468,1.3472,1.3475,0,0,0,0,0,0,0,0,0,0,0,0,0,1.3144,1.3066,1.3219,1.3254,1.3258,1.3321,1.3323,1.3324,1.3364,1.3364,1.3363,1.3363,1.3467,1.3471,1.3476,1.3512,0,0,1.349,1.3492,0,0,0,0,0,0,0,0,1.314,1.315,1.3247,1.3252,1.3256,1.3329,1.3306,1.3387,1.3364,1.3324,1.3363,1.3363,1.3423,1.3431,1.3451,1.3517,1.3522,1.349,1.3493,1.3495,1.3496,0,0,0,0,0,0,0,1.3134,1.3146,1.326,1.3249,1.3254,1.3265,1.3277,1.3322,1.3374,1.3327,1.333,1.3342,1.3425,1.3447,1.3454,1.3523,1.349,1.3494,1.3497,1.3499,1.3628,1.3628,0,0,0,0,0,0,1.3122,1.3141,1.3257,1.3263,1.3196,1.3269,1.3281,1.3306,1.3374,1.3384,1.3342,1.3343,1.3439,1.3449,1.3458,1.3507,1.3495,1.3499,1.3502,1.3627,1.3628,1.3629,0,0,0,0,0,0,1.3119,1.3132,1.3252,1.3203,1.3219,1.3272,1.33,1.3309,1.333,1.3385,1.3395,1.3354,1.3439,1.3451,1.3499,1.3511,1.3501,1.3506,1.3626,1.3627,1.3628,1.3603,0,0,0,0,0,0,1.3114,1.3131,1.3144,1.3203,1.3222,1.3291,1.3301,1.3311,1.3338,1.334,1.3399,1.3408,1.344,1.3492,1.3504,1.3517,1.3509,1.3625,1.3627,1.3628,1.3603,1.3603,1.3603,0,0,0,0,0,1.3108,1.3133,1.3144,1.3158,1.3239,1.3291,1.3302,1.3337,1.3338,1.3353,1.3389,1.3406,1.3508,1.3496,1.351,1.3525,1.3625,1.3626,1.3628,1.3603,1.3603,1.3603,0,0,0,0,0,0,1.3074,1.3141,1.3155,1.3199,1.3239,1.3298,1.3317,1.3336,1.3376,1.3377,1.342,1.3433,1.3477,1.3506,1.3492,1.3565,1.3568,1.3572,1.3544,1.3545,1.3545,1.3537,1.3513,0,0,0,0,0,1.3071,1.3107,1.3164,1.3198,1.3217,1.3264,1.3288,1.3311,1.3355,1.3372,1.3412,1.3454,1.3496,1.3522,1.3563,1.3608,1.3623,1.3625,1.3625,1.3625,1.3628,1.3656,1.3658,1.3633,1.3633,1.3633,0,0,1.3066,1.3108,1.3127,1.3192,1.3226,1.3263,1.3278,1.3316,1.3344,1.3378,1.3426,1.3456,1.3507,1.3554,1.3576,1.3579,1.3639,1.3627,1.3626,1.363,1.3658,1.366,1.3662,1.3634,1.3634,1.3634,0,0,1.3076,1.3111,1.3143,1.3177,1.3229,1.326,1.3268,1.3325,1.3346,1.3395,1.3422,1.3457,1.3527,1.3563,1.359,1.3617,1.3635,1.3629,1.3629,1.3655,1.3657,1.3659,1.367,1.3673,1.3632,1.3632,1.3632,0,1.3064,1.312,1.3157,1.3195,1.3223,1.3256,1.329,1.3322,1.3384,1.3404,1.3406,1.3497,1.3533,1.3589,1.3596,1.3617,1.3628,1.3622,1.3654,1.3656,1.3659,1.3669,1.3673,1.3631,1.3631,1.3631,1.3631,0,1.3103,1.3142,1.3162,1.3222,1.3252,1.3288,1.3332,1.3359,1.3381,1.3413,1.3463,1.3508,1.356,1.3575,1.3597,1.3636,1.3636,1.3646,1.3649,1.366,1.367,1.3675,1.3629,1.363,1.363,1.363,0,0,1.3091,1.3173,1.318,1.3209,1.3269,1.3301,1.3339,1.339,1.3413,1.3456,1.3489,1.355,1.356,1.3591,1.3617,1.3641,1.3661,1.3648,1.365,1.3649,1.3708,1.37,1.3704,1.3674,1.3675,1.3675,1.3704,0,1.311,1.3179,1.3215,1.3269,1.3306,1.334,1.3373,1.3415,1.3446,1.3484,1.3519,1.3561,1.3571,1.359,1.3615,1.3653,1.3673,1.3651,1.3707,1.3708,1.3693,1.371,1.3701,1.3726,1.3709,1.3709,1.371,0,1.314,1.3183,1.324,1.3299,1.3316,1.3345,1.3396,1.3431,1.348,1.3501,1.3537,1.3564,1.3607,1.3608,1.3669,1.3654,1.3679,1.3702,1.3704,1.371,1.3709,1.3716,1.3734,1.3738,1.3717,1.3716,1.3716,0,1.3127,1.3199,1.3243,1.3267,1.3336,1.3356,1.3386,1.3434,1.3463,1.3508,1.3528,1.3577,1.3604,1.3643,1.3683,1.3679,1.3741,1.3745,1.3761,1.376,1.3771,1.377,1.3794,1.3788,1.3788,1.3788,1.3788,0,1.3143,1.3177,1.3239,1.3266,1.3306,1.3348,1.3387,1.342,1.3463,1.3499,1.3531,1.3564,1.3615,1.3654,1.3686,1.3733,1.3745,1.3764,1.3772,1.3761,1.3759,1.3778,1.3777,1.3789,1.3788,1.3788,1.3788,0,1.3135,1.3177,1.3228,1.329,1.3306,1.3333,1.3387,1.3415,1.3449,1.3494,1.3507,1.356,1.3609,1.3653,1.3717,1.3739,1.3787,1.3797,1.377,1.3774,1.3788,1.3786,1.3825,1.3832,1.3821,1.3821,1.3821,0,1.3142,1.3169,1.3235,1.3261,1.329,1.3331,1.3361,1.3405,1.3435,1.3495,1.3517,1.3568,1.3611,1.3688,1.3733,1.3783,1.3795,1.3805,1.3802,1.3791,1.3796,1.3793,1.3797,1.3804,1.3804,1.3804,1.3804,0,1.3151,1.3171,1.3213,1.3263,1.3298,1.334,1.3382,1.3402,1.3454,1.3487,1.3537,1.357,1.3637,1.3688,1.3744,1.3776,1.3799,1.3805,1.3811,1.38,1.3783,1.3793,1.3769,1.3803,1.3803,1.3803,1.3803,1.3803,1.3151,1.3178,1.3228,1.3275,1.3312,1.3351,1.3382,1.342,1.3462,1.3519,1.3544,1.3595,1.3646,1.3723,1.3756,1.3798,1.3802,1.3811,1.3814,1.3815,1.3814,1.3777,1.3808,1.3808,1.3809,1.3809,1.3809,0,1.3163,1.3197,1.3239,1.3298,1.3335,1.3354,1.3403,1.3433,1.3477,1.3523,1.3565,1.3624,1.3674,1.3724,1.3778,1.3802,1.3814,1.3814,1.3813,1.382,1.3806,1.3796,1.3804,1.3804,1.3804,1.3804,1.3804,1.3804,1.3173,1.3219,1.3245,1.3311,1.3346,1.3396,1.3423,1.346,1.3497,1.3561,1.3603,1.3636,1.3684,1.3742,1.3789,1.3803,1.3821,1.3819,1.3835,1.3821,1.3821,1.3821,1.3811,1.3822,1.3822,1.3846,1.3846,1.3846]},{"header":{"parameterUnit":"m.s-1","parameterCategory":1,"la1":30.2991,"la2":30.254,"lo1":-89.0895,"lo2":-89.0444,"dy":0.0017,"dx":0.0017,"nx":28,"ny":28,"refTime":"2025-05-20T21:00:00:Z","depth":0,"parameterNumber":3,"parameterNumberName":"V-component_of_WINDS"},"data":[0,0,0,0,0,0,0,0,0,0,0,0,0,0,0,0,0,0,0,0,0,0,0,0,0,0,0,0,0,0,0,0,0,0,0,0,0,0,0,0,0,0,0,0,0,0,0,0,0,0,0,0,0,0,0,0,0,0,-0.625,-0.625,0,-0.6299,-0.6299,-0.63,-0.6334,-0.6334,-0.6334,-0.6335,-0.6386,-0.6387,-0.6388,0,0,0,0,0,0,0,0,0,0,0,0,0,-0.6188,-0.6189,-0.625,-0.625,-0.6251,-0.6299,-0.6299,-0.63,-0.6334,-0.6334,-0.6335,-0.6335,-0.6385,-0.6387,-0.6388,0,0,0,0,0,0,0,0,0,0,0,0,0,-0.6224,-0.619,-0.625,-0.6274,-0.6276,-0.6299,-0.6299,-0.63,-0.6334,-0.6334,-0.6335,-0.6335,-0.6385,-0.6387,-0.6388,-0.6391,0,0,-0.6393,-0.6394,0,0,0,0,0,0,0,0,-0.6222,-0.6226,-0.6269,-0.6272,-0.6275,-0.6311,-0.6297,-0.6331,-0.6334,-0.6312,-0.6335,-0.6335,-0.6361,-0.6364,-0.6373,-0.6393,-0.6396,-0.6394,-0.6395,-0.6395,-0.6396,0,0,0,0,0,0,0,-0.6219,-0.6224,-0.6269,-0.627,-0.6273,-0.6283,-0.6288,-0.6303,-0.6334,-0.6314,-0.6316,-0.6322,-0.6362,-0.6371,-0.6374,-0.6396,-0.6393,-0.6395,-0.6396,-0.6397,-0.6425,-0.6425,0,0,0,0,0,0,-0.6213,-0.6222,-0.6268,-0.6271,-0.6249,-0.6284,-0.629,-0.6299,-0.6333,-0.6339,-0.6321,-0.6323,-0.6368,-0.6372,-0.6376,-0.6384,-0.6395,-0.6397,-0.6398,-0.6426,-0.6425,-0.6425,0,0,0,0,0,0,-0.6211,-0.6217,-0.6266,-0.6247,-0.6254,-0.6284,-0.6294,-0.63,-0.6308,-0.6339,-0.6345,-0.6325,-0.6368,-0.6374,-0.6388,-0.6386,-0.6398,-0.6399,-0.6426,-0.6426,-0.6425,-0.6398,0,0,0,0,0,0,-0.6209,-0.6216,-0.6216,-0.6247,-0.6255,-0.6276,-0.6294,-0.63,-0.6311,-0.6314,-0.6344,-0.6349,-0.6369,-0.6385,-0.6389,-0.6388,-0.64,-0.6426,-0.6426,-0.6425,-0.6399,-0.6396,-0.6394,0,0,0,0,0,-0.6207,-0.6206,-0.6216,-0.6221,-0.6256,-0.6275,-0.628,-0.6303,-0.6311,-0.6312,-0.6333,-0.6348,-0.6385,-0.6386,-0.6391,-0.6391,-0.6427,-0.6426,-0.6425,-0.64,-0.6397,-0.6394,0,0,0,0,0,0,-0.6174,-0.621,-0.6222,-0.6231,-0.625,-0.6281,-0.6283,-0.6298,-0.6316,-0.6318,-0.6346,-0.6352,-0.6364,-0.6379,-0.6379,-0.6397,-0.6408,-0.6408,-0.6387,-0.6384,-0.6382,-0.6378,-0.6402,0,0,0,0,0,-0.6168,-0.618,-0.6211,-0.6216,-0.6225,-0.6253,-0.6262,-0.6278,-0.6299,-0.6307,-0.6328,-0.6349,-0.6365,-0.6376,-0.6392,-0.6401,-0.641,-0.6404,-0.6401,-0.6399,-0.64,-0.6408,-0.6407,-0.6423,-0.6423,-0.6423,0,0,-0.6155,-0.6177,-0.6182,-0.621,-0.6227,-0.624,-0.6259,-0.6271,-0.6282,-0.6309,-0.6324,-0.6341,-0.6365,-0.6378,-0.6384,-0.639,-0.6397,-0.6399,-0.6397,-0.6398,-0.6408,-0.6406,-0.6405,-0.6423,-0.6423,-0.6423,0,0,-0.6139,-0.6155,-0.6162,-0.6179,-0.6204,-0.6223,-0.6225,-0.6255,-0.6267,-0.6282,-0.6304,-0.6317,-0.6344,-0.6362,-0.6374,-0.6368,-0.6384,-0.6373,-0.6361,-0.6369,-0.6367,-0.6366,-0.6366,-0.6365,-0.6373,-0.6373,-0.6373,0,-0.612,-0.614,-0.6164,-0.6176,-0.6189,-0.6214,-0.6223,-0.6238,-0.6267,-0.6276,-0.6283,-0.632,-0.6338,-0.6356,-0.6355,-0.6363,-0.6367,-0.6369,-0.6365,-0.6365,-0.6364,-0.6364,-0.6364,-0.6371,-0.6371,-0.6371,-0.6372,0,-0.6117,-0.613,-0.6133,-0.6161,-0.6174,-0.6184,-0.6211,-0.6221,-0.6237,-0.6256,-0.6273,-0.6296,-0.6319,-0.6324,-0.6339,-0.6345,-0.6349,-0.636,-0.6372,-0.6361,-0.6361,-0.6361,-0.6369,-0.637,-0.637,-0.637,0,0,-0.608,-0.6123,-0.6124,-0.6138,-0.6169,-0.6181,-0.6193,-0.6216,-0.6225,-0.6245,-0.6257,-0.6281,-0.6292,-0.6307,-0.6324,-0.6331,-0.6327,-0.6342,-0.6343,-0.6339,-0.6338,-0.633,-0.6329,-0.6338,-0.6338,-0.6338,-0.6336,0,-0.607,-0.6092,-0.6116,-0.613,-0.6145,-0.617,-0.6181,-0.6202,-0.622,-0.6236,-0.6256,-0.6274,-0.6286,-0.6296,-0.6304,-0.6325,-0.6327,-0.6326,-0.6351,-0.6351,-0.6344,-0.6329,-0.632,-0.6317,-0.6336,-0.6336,-0.6336,0,-0.606,-0.608,-0.6096,-0.6128,-0.6135,-0.6144,-0.6168,-0.6182,-0.6207,-0.622,-0.6237,-0.6256,-0.6272,-0.6282,-0.6306,-0.6304,-0.6316,-0.6329,-0.6329,-0.6333,-0.6343,-0.6333,-0.6316,-0.6316,-0.6336,-0.6336,-0.6336,0,-0.6035,-0.6065,-0.6079,-0.609,-0.6127,-0.6133,-0.6149,-0.6175,-0.6188,-0.6209,-0.6218,-0.6241,-0.6254,-0.6272,-0.6298,-0.6302,-0.6319,-0.6331,-0.6332,-0.6331,-0.6334,-0.6334,-0.632,-0.634,-0.634,-0.634,-0.634,0,-0.6021,-0.6031,-0.6068,-0.6077,-0.6089,-0.6117,-0.6128,-0.6146,-0.6169,-0.6183,-0.6207,-0.622,-0.6252,-0.627,-0.629,-0.6307,-0.6313,-0.6325,-0.633,-0.6323,-0.6322,-0.6331,-0.6333,-0.634,-0.634,-0.634,-0.634,0,-0.5995,-0.602,-0.6037,-0.6071,-0.608,-0.6088,-0.6117,-0.6128,-0.6148,-0.6165,-0.6171,-0.6203,-0.6225,-0.6252,-0.6282,-0.6296,-0.6312,-0.632,-0.6304,-0.6307,-0.6307,-0.6307,-0.63,-0.6301,-0.6319,-0.6319,-0.6318,0,-0.5985,-0.5993,-0.6028,-0.6039,-0.6054,-0.6071,-0.6085,-0.6113,-0.6126,-0.6157,-0.6164,-0.6188,-0.6208,-0.6242,-0.6269,-0.6293,-0.6302,-0.6298,-0.6306,-0.6299,-0.6304,-0.6303,-0.6305,-0.6296,-0.6295,-0.6295,-0.6295,0,-0.5966,-0.5979,-0.5997,-0.602,-0.6036,-0.6056,-0.6077,-0.6085,-0.6117,-0.6132,-0.6154,-0.617,-0.6202,-0.6226,-0.6254,-0.6271,-0.6289,-0.6292,-0.6294,-0.6287,-0.6278,-0.6285,-0.6299,-0.6292,-0.6293,-0.6293,-0.6293,-0.6293,-0.5949,-0.5958,-0.5984,-0.6005,-0.6023,-0.6043,-0.6055,-0.6077,-0.6096,-0.6124,-0.6139,-0.6162,-0.6189,-0.6229,-0.6246,-0.6265,-0.6272,-0.6274,-0.6274,-0.6275,-0.6273,-0.6275,-0.627,-0.627,-0.627,-0.6271,-0.6271,0,-0.5932,-0.5951,-0.5969,-0.5998,-0.6015,-0.603,-0.6054,-0.6067,-0.6087,-0.611,-0.613,-0.6157,-0.6181,-0.621,-0.6236,-0.6246,-0.6255,-0.6252,-0.6252,-0.6257,-0.6265,-0.6262,-0.6245,-0.6245,-0.6245,-0.6245,-0.6245,-0.6245,-0.5926,-0.5943,-0.5958,-0.5985,-0.6004,-0.6026,-0.6039,-0.6058,-0.6077,-0.6106,-0.6126,-0.6145,-0.6171,-0.62,-0.6223,-0.6231,-0.624,-0.6235,-0.6246,-0.6253,-0.6256,-0.6258,-0.6255,-0.6236,-0.6236,-0.6236,-0.6236,-0.6236]}]]